Location: Newark
(48.1500°N, 2.9667°W)
Time: 17:47:31
(UTC+00:00)

Transit 2A - Pass Details

Date: 01 February 2020
Orbit: 600 x 959 km, 66.7° (Epoch: 22 February)

Event Time Altitude Azimuth Distance (km) Brightness Sun altitude
Rises 00:49:04 0° 330° (NNW) 2,928 - -58.8°
Reaches altitude 10° 00:52:15 10° 355° (N) 2,068 - -58.7°
Maximum altitude 00:54:57 15° 30° (NNE) 1,801 - -58.6°
Drops below altitude 10° 00:57:45 10° 65° (ENE) 2,175 - -58.4°
Sets 01:01:13 0° 89° (E) 3,174 - -58.3°
